Location: Bronschhofen
(47.4788°N, 9.0353°E)
Time: 19:38:06
(UTC+00:00)

Cosmos 1943 Rocket - Pass Details

Date: 20 May 2022
Orbit: 810 x 845 km, 71.0° (Epoch: 01 July)

Event Time Altitude Azimuth Distance (km) Brightness Sun altitude
Rises 01:37:04 0° 335° (NNW) 3,409 5.8 -15.9°
Reaches altitude 10° 01:39:38 10° 342° (NNW) 2,473 5.2 -15.7°
Maximum altitude 01:45:05 46° 55° (NE) 1,129 3.3 -15.2°
Drops below altitude 10° 01:50:31 10° 128° (SE) 2,463 4.6 -14.6°
Sets 01:53:03 0° 135° (SE) 3,392 5.3 -14.4°
